Regional Weather Roundup
Issued by NWS

Home | Current Version | Previous Version | Text Only | Print | Product List | Glossary Off
Versions: 1 2 3 4 5 6 7 8 9 10 11 12 13 14 15 16 17 18 19 20 21 22 23 24 25 26 27 28 29 30 31 32 33 34 35 36 37 38 39 40 41 42 43 44 45 46 47 48 49 50

000
ASUS43 KLMK 171702
RWRKY
KENTUCKY REGIONAL WEATHER ROUNDUP
NATIONAL WEATHER SERVICE LOUISVILLE KY
1200 PM EST WED DEC 17 2014

NOTE "FAIR" INDICATES FEW OR NO CLOUDS BELOW 12,000 FEET
WITH NO SIGNIFICANT WEATHER AND/OR OBSTRUCTIONS TO VISIBILITY.

KYZ001>023-026-027-061>063-070>075-171800-
WESTERN AND SOUTH CENTRAL KENTUCKY

CITY           SKY/WX    TMP DP  RH WIND       PRES   REMARKS
PADUCAH        PTSUNNY   37  26  64 N5        30.33F WCI  33
HENDERSON      CLOUDY    34  25  69 NW6       30.32F WCI  29
OWENSBORO      CLOUDY    33  26  76 NW9       30.32F WCI  25
HOPKINSVILLE   CLOUDY    37  28  68 VRB3      30.30F
BOWLING GREEN  CLOUDY    37  26  64 NW6       30.31F WCI  32
GLASGOW        NOT AVBL
$$

KYZ024-025-028>034-038-045-046-053-171800-
NORTH CENTRAL KENTUCKY

CITY           SKY/WX    TMP DP  RH WIND       PRES   REMARKS
LOUISVILLE/SDF CLOUDY    34  26  72 W6        30.29F WCI  29
LOUISVILLE/LOU CLOUDY    33  25  72 W7        30.29F WCI  27
FORT KNOX      CLOUDY    33  26  74 W6        30.27F WCI  28
$$

KYZ035>037-039>044-047>052-055>060-089>105-171800-
NORTHEAST KENTUCKY

CITY           SKY/WX    TMP DP  RH WIND       PRES   REMARKS
LEXINGTON      CLOUDY    33  27  78 W5        30.26F WCI  29
COVINGTON      CLOUDY    31  23  72 W10       30.24  WCI  22
FRANKFORT      CLOUDY    33  26  75 W7        30.26F WCI  27
$$

KYZ054-064>069-076>088-106>120-171800-
SOUTHEAST KENTUCKY

CITY           SKY/WX    TMP DP  RH WIND       PRES   REMARKS
JACKSON        CLOUDY    36  29  75 W7        30.22F WCI  30
LONDON         CLOUDY    37  29  72 W8        30.24F WCI  31
SOMERSET       NOT AVBL
MIDDLESBORO    NOT AVBL
MONTICELLO     CLOUDY    36  30  79 NW6       30.31F WCI  31
$$




USA.gov is the U.S. government's official web portal to all federal, state and local government web resources and services.